TimeCST,TemperatureF,Dew PointF,Humidity,Sea Level PressureIn,VisibilityMPH,Wind Direction,Wind SpeedMPH,Gust SpeedMPH,PrecipitationIn,Events,Conditions,WindDirDegrees,DateUTC
12:15 AM,51.8,46.4,82,30.17,10.0,SSE,9.2,-,N/A,,Mostly Cloudy,150,2014-01-10 06:15:00
12:35 AM,51.8,46.4,82,30.17,10.0,SSE,6.9,-,N/A,,Scattered Clouds,150,2014-01-10 06:35:00
12:55 AM,50.0,44.6,82,30.16,10.0,SSE,6.9,-,N/A,,Clear,160,2014-01-10 06:55:00
1:15 AM,50.0,44.6,82,30.17,10.0,SSE,6.9,-,N/A,,Clear,150,2014-01-10 07:15:00
1:35 AM,50.0,44.6,82,30.16,10.0,SE,6.9,-,N/A,,Clear,140,2014-01-10 07:35:00
1:55 AM,48.2,44.6,87,30.16,10.0,SE,5.8,-,N/A,,Clear,140,2014-01-10 07:55:00
2:15 AM,48.2,44.6,87,30.15,10.0,SE,8.1,-,N/A,,Clear,140,2014-01-10 08:15:00
2:35 AM,50.0,46.4,87,30.14,10.0,SE,10.4,-,N/A,,Clear,140,2014-01-10 08:35:00
2:55 AM,48.2,44.6,87,30.14,10.0,SE,9.2,-,N/A,,Clear,140,2014-01-10 08:55:00
3:15 AM,48.2,44.6,87,30.13,10.0,SE,6.9,-,N/A,,Clear,140,2014-01-10 09:15:00
3:35 AM,48.2,44.6,87,30.13,10.0,SE,8.1,-,N/A,,Clear,130,2014-01-10 09:35:00
3:55 AM,48.2,44.6,87,30.12,10.0,SE,6.9,-,N/A,,Clear,140,2014-01-10 09:55:00
4:15 AM,48.2,44.6,87,30.12,10.0,SE,6.9,-,N/A,,Clear,140,2014-01-10 10:15:00
4:35 AM,48.2,44.6,87,30.12,10.0,SE,6.9,-,N/A,,Scattered Clouds,140,2014-01-10 10:35:00
4:55 AM,48.2,44.6,87,30.11,10.0,SE,8.1,-,N/A,,Overcast,130,2014-01-10 10:55:00
5:15 AM,48.2,44.6,87,30.11,10.0,SE,11.5,16.1,N/A,,Overcast,140,2014-01-10 11:15:00
5:35 AM,48.2,44.6,87,30.10,10.0,SSE,13.8,-,N/A,,Overcast,150,2014-01-10 11:35:00
5:55 AM,48.2,44.6,87,30.10,10.0,SE,9.2,-,N/A,,Overcast,140,2014-01-10 11:55:00
6:15 AM,48.2,44.6,87,30.09,3.0,SE,9.2,-,N/A,,Overcast,140,2014-01-10 12:15:00
6:35 AM,48.2,44.6,87,30.09,1.5,SE,10.4,17.3,N/A,,Overcast,140,2014-01-10 12:35:00
6:55 AM,48.2,46.4,93,30.10,1.2,SE,11.5,17.3,N/A,,Overcast,130,2014-01-10 12:55:00
7:15 AM,48.2,46.4,93,30.11,0.5,SSE,10.4,-,N/A,,Overcast,150,2014-01-10 13:15:00
7:35 AM,48.2,46.4,93,30.10,0.8,SE,10.4,17.3,N/A,,Overcast,140,2014-01-10 13:35:00
7:55 AM,48.2,46.4,93,30.11,0.8,SE,8.1,-,N/A,,Overcast,140,2014-01-10 13:55:00
8:15 AM,48.2,48.2,100,30.11,1.5,SSE,10.4,-,N/A,,Overcast,150,2014-01-10 14:15:00
8:35 AM,50.0,48.2,94,30.10,1.0,SE,11.5,-,N/A,,Overcast,140,2014-01-10 14:35:00
8:55 AM,51.8,50.0,94,30.11,2.0,SSE,15.0,-,N/A,,Overcast,150,2014-01-10 14:55:00
9:15 AM,51.8,50.0,94,30.11,5.0,SSE,10.4,-,N/A,,Overcast,150,2014-01-10 15:15:00
9:35 AM,51.8,51.8,100,30.11,10.0,SSE,11.5,-,N/A,,Overcast,150,2014-01-10 15:35:00
9:55 AM,53.6,51.8,94,30.10,10.0,SSE,15.0,21.9,N/A,,Overcast,150,2014-01-10 15:55:00
10:15 AM,53.6,51.8,94,30.09,10.0,SSE,12.7,-,N/A,,Overcast,150,2014-01-10 16:15:00
10:35 AM,55.4,53.6,94,30.07,10.0,SSE,15.0,20.7,N/A,,Overcast,150,2014-01-10 16:35:00
10:55 AM,55.4,53.6,94,30.05,10.0,SSE,15.0,-,N/A,,Overcast,150,2014-01-10 16:55:00
11:15 AM,57.2,53.6,88,30.04,10.0,SSE,12.7,-,N/A,,Overcast,160,2014-01-10 17:15:00
11:35 AM,57.2,53.6,88,30.03,10.0,SSE,12.7,-,N/A,,Overcast,150,2014-01-10 17:35:00
11:55 AM,59.0,53.6,82,30.01,10.0,SE,11.5,-,N/A,,Overcast,140,2014-01-10 17:55:00
12:15 PM,60.8,53.6,77,29.99,10.0,SSE,11.5,20.7,N/A,,Overcast,160,2014-01-10 18:15:00
12:35 PM,60.8,55.4,82,29.98,10.0,SSE,15.0,19.6,N/A,,Overcast,160,2014-01-10 18:35:00
12:55 PM,62.6,55.4,77,29.95,10.0,SE,15.0,20.7,N/A,,Overcast,140,2014-01-10 18:55:00
1:15 PM,64.4,57.2,77,29.93,10.0,South,11.5,19.6,N/A,,Overcast,170,2014-01-10 19:15:00
1:35 PM,66.2,57.2,73,29.93,10.0,South,15.0,18.4,N/A,,Overcast,170,2014-01-10 19:35:00
1:55 PM,64.4,57.2,77,29.92,10.0,SSE,18.4,21.9,N/A,,Overcast,160,2014-01-10 19:55:00
2:15 PM,64.4,57.2,77,29.92,10.0,SSE,13.8,17.3,N/A,,Overcast,160,2014-01-10 20:15:00
2:35 PM,66.2,57.2,73,29.91,10.0,South,16.1,19.6,N/A,,Overcast,170,2014-01-10 20:35:00
2:55 PM,66.2,57.2,73,29.89,10.0,South,12.7,21.9,N/A,,Mostly Cloudy,170,2014-01-10 20:55:00
3:15 PM,66.2,59.0,78,29.89,10.0,SSE,19.6,25.3,N/A,,Mostly Cloudy,160,2014-01-10 21:15:00
3:35 PM,66.2,57.2,73,29.89,10.0,South,12.7,18.4,N/A,,Overcast,170,2014-01-10 21:35:00
3:55 PM,66.2,57.2,73,29.89,10.0,South,13.8,23.0,N/A,,Overcast,170,2014-01-10 21:55:00
4:15 PM,66.2,57.2,73,29.89,10.0,South,11.5,19.6,N/A,,Overcast,170,2014-01-10 22:15:00
4:35 PM,64.4,59.0,83,29.89,10.0,South,11.5,21.9,N/A,,Overcast,170,2014-01-10 22:35:00
4:55 PM,64.4,59.0,83,29.88,10.0,South,17.3,20.7,N/A,,Overcast,170,2014-01-10 22:55:00
5:15 PM,64.4,59.0,83,29.88,10.0,South,13.8,-,N/A,,Overcast,170,2014-01-10 23:15:00
5:35 PM,64.4,59.0,83,29.87,10.0,South,16.1,-,N/A,,Overcast,170,2014-01-10 23:35:00
5:55 PM,64.4,59.0,83,29.87,10.0,South,16.1,23.0,N/A,,Overcast,170,2014-01-10 23:55:00
6:15 PM,64.4,59.0,83,29.87,10.0,South,11.5,21.9,N/A,,Overcast,180,2014-01-11 00:15:00
6:35 PM,64.4,59.0,83,29.87,10.0,South,12.7,20.7,N/A,,Overcast,170,2014-01-11 00:35:00
6:55 PM,64.4,60.8,88,29.87,10.0,South,12.7,18.4,N/A,,Overcast,180,2014-01-11 00:55:00
7:15 PM,64.4,60.8,88,29.87,10.0,South,16.1,20.7,N/A,,Overcast,170,2014-01-11 01:15:00
7:35 PM,64.4,59.0,83,29.87,10.0,South,13.8,-,N/A,,Overcast,170,2014-01-11 01:35:00
7:55 PM,64.4,60.8,88,29.87,10.0,South,15.0,-,N/A,,Mostly Cloudy,170,2014-01-11 01:55:00
8:15 PM,62.6,60.8,94,29.86,10.0,South,11.5,-,N/A,,Overcast,170,2014-01-11 02:15:00
8:35 PM,64.4,60.8,88,29.85,6.0,South,9.2,18.4,N/A,,Overcast,180,2014-01-11 02:35:00
8:55 PM,62.6,60.8,94,29.85,3.0,South,13.8,-,N/A,,Overcast,170,2014-01-11 02:55:00
9:15 PM,62.6,60.8,94,29.84,5.0,South,16.1,-,N/A,,Overcast,180,2014-01-11 03:15:00
9:35 PM,62.6,60.8,94,29.81,9.0,SSE,17.3,24.2,N/A,,Overcast,160,2014-01-11 03:35:00
9:55 PM,64.4,60.8,88,29.83,10.0,South,18.4,23.0,N/A,,Overcast,170,2014-01-11 03:55:00
10:15 PM,64.4,62.6,94,29.81,9.0,South,18.4,23.0,N/A,,Overcast,170,2014-01-11 04:15:00
10:35 PM,64.4,62.6,94,29.80,5.0,South,16.1,21.9,N/A,,Overcast,180,2014-01-11 04:35:00
10:55 PM,64.4,62.6,94,29.79,7.0,South,21.9,26.5,0.02,,Overcast,170,2014-01-11 04:55:00
11:15 PM,64.4,62.6,94,29.79,10.0,South,17.3,27.6,0.02,,Overcast,180,2014-01-11 05:15:00
11:35 PM,66.2,62.6,88,29.78,8.0,South,17.3,25.3,0.03,,Overcast,190,2014-01-11 05:35:00
11:55 PM,66.2,64.4,94,29.80,7.0,SSW,16.1,21.9,0.07,,Overcast,210,2014-01-11 05:55:00